{"data":{"norad_id":64361,"epoch":"2026-09-20T09:58:13.038816Z","epoch_age_seconds":141691,"freshness":"FRESH","line1":"1 64361U 25126T   26263.41542869  .00010108  00000+0  35543-3 0  9996","line2":"2 64361  70.0011 260.9440 0003847 283.8698  76.2048 15.29593348 69913","mean_motion":15.29593348,"eccentricity":0.0003847,"inclination_deg":70.0011,"raan_deg":260.944,"arg_perigee_deg":283.8698,"mean_anomaly_deg":76.2048,"bstar":0.00035543,"rev_number":6991,"period_min":94.142668826512,"perigee_km":474.38983998351,"apogee_km":479.66420318171,"semimajor_km":6855.1640215826,"source":"CELESTRAK","updated_at":"2026-09-21T09:00:35.319418Z"}}